This demonstration page uses our WeatherBlox Daily Observations layout. Learn more.

Left ArrowRight Arrow

Hourly Observations for February 4, 2017

Temp ( °F °C ) Dew Point ( °F °C ) Humidity (%) Winds ( mph kmh ) Pressure ( in mb ) Visibility ( mi km ) Precip ( " mm )
12:35 am 00:35 Mostly Cloudy 37 2.8 32 0 82 82 ESE 8 13 30.30 1026 9 14 0.00 0.00
12:53 am 00:53 Cloudy 38 3.3 33 0.6 83 83 ESE 7 11 30.22 1023 9 14 0.00 0.00
1:09 am 01:09 Cloudy 38 3.3 33 0.6 83 83 ESE 8 13 30.30 1026 9 14 0.00 0.00
1:53 am 01:53 Cloudy 39 3.9 33 0.6 79 79 ENE 5 7 30.20 1023 10 16 0.00 0.00
2:14 am 02:14 Cloudy 39 4 34 1 81 81 E 8 13 30.27 1025 10 16 0.00 0.00
2:32 am 02:32 Cloudy 39 4 34 1 81 81 E 7 11 30.27 1025 10 16 0.00 0.00
2:53 am 02:53 Cloudy 40 4.4 34 1.1 79 79 ESE 8 13 30.17 1022 10 16 0.00 0.00
3:53 am 03:53 Cloudy 40 4.4 34 1.1 79 79 E 6 9 30.15 1021 10 16 0.00 0.00
4:53 am 04:53 Cloudy 40 4.4 35 1.7 83 83 ESE 8 13 30.14 1021 9 14 0.00 0.00
5:53 am 05:53 Cloudy 40 4.4 37 2.8 89 89 SE 8 13 30.13 1020 7 11 0.00 0.00
6:53 am 06:53 Cloudy with Mist and Fog 40 4.4 37 2.8 89 89 SE 6 9 30.14 1021 6 10 0.00 0.00
7:53 am 07:53 Cloudy with Mist and Fog 40 4.4 38 3.3 93 93 ESE 5 7 30.15 1021 5 8 0.00 0.00
8:53 am 08:53 Cloudy with Mist and Fog 41 5 39 3.9 93 93 SE 5 7 30.16 1021 4 6 0.00 0.00
9:53 am 09:53 Cloudy with Mist and Fog 43 6.1 40 4.4 89 89 SSE 7 11 30.16 1022 5 8 0.00 0.00
10:53 am 10:53 Cloudy 46 7.8 40 4.4 79 79 SSW 3 6 30.16 1021 8 13 0.00 0.00
11:25 am 11:25 Partly Cloudy 48 8.9 41 5 77 77 Calm 30.21 1023 10 16 0.00 0.00
11:53 am 11:53 Sunny 50 10 41 5 71 71 VRB 5 7 30.13 1020 10 16 0.00 0.00
12:53 pm 12:53 Sunny 56 13.3 41 5 57 57 E 7 11 30.07 1018 10 16 0.00 0.00
1:53 pm 13:53 Sunny 61 16.1 39 3.9 44 44 ESE 5 7 30.01 1016 10 16 0.00 0.00
2:53 pm 14:53 Sunny 65 18.3 38 3.3 37 37 ESE 7 11 29.97 1015 10 16 0.00 0.00
3:53 pm 15:53 Sunny 67 19.4 37 2.8 33 33 SSW 8 13 29.94 1014 10 16 0.00 0.00
4:53 pm 16:53 Sunny 66 18.9 37 2.8 34 34 S 10 17 29.93 1014 10 16 0.00 0.00
5:53 pm 17:53 Sunny 64 17.8 38 3.3 38 38 S 7 11 29.93 1014 10 16 0.00 0.00
6:53 pm 18:53 Clear 59 15 41 5 51 51 SSE 8 13 29.96 1014 10 16 0.00 0.00
7:53 pm 19:53 Clear 56 13.3 45 7.2 67 67 SSE 10 17 29.96 1015 10 16 0.00 0.00
8:53 pm 20:53 Clear 52 11.1 44 6.7 75 75 SSE 6 9 29.98 1015 10 16 0.00 0.00
9:53 pm 21:53 Clear 50 10 43 6.1 77 77 E 5 7 29.99 1016 9 14 0.00 0.00
10:53 pm 22:53 Clear 43 6.1 40 4.4 89 89 NNE 3 6 30.00 1016 8 13 0.00 0.00
11:53 pm 23:53 Clear 41 5 39 3.9 93 93 NE 3 6 30.00 1016 7 11 0.00 0.00

Powered by AerisWeather